Weather in Dzerzhinsky

Russia / Moscow Oblast     55°37′51″N   37°50′58″E
temp.,
°C
wind,
m/s
gust,
m/s
humid.,
%
clouds,
%
prec.,
mm/h
press.,
hPa
HPBL,
m
18 january, mon
mon1800:00−23n229812 0.0 102020
03:00−24nnw119931 0.0 102020
06:00−24sw1110093 0.0 102120
09:00−24nw1110071 0.0 102120
12:00−19sw119499 0.0 1021107
15:00−17wnw0195100 0.0 102088
18:00−19nw1196100 0.0 101920
21:00−19wnw0195100 0.0 102020
19 january, tue
tue1900:00−18nw1195100 0.0 101920
03:00−17nw1194100 0.0 101920
06:00−17nnw1194100 0.0 101820
09:00−17wnw1192100 0.0 101920
12:00−15nw1289100 0.0 1018188
15:00−14wnw1294100 0.0 1017214
18:00−15wnw1297100 0.1 101733
21:00−14nw2297100 0.5 101857
20 january, wed
wed2000:00−15nw229697 0.1 101855
03:00−17nw229797 0.1 101824
06:00−18wnw229785 0.0 101926
09:00−19wnw229885 0.1 102020
12:00−15w229574 0.0 1020122
15:00−14wsw129656 0.0 102095
18:00−17wsw22960 0.0 102120
21:00−18sw23960 0.0 102225
21 january, thu
thu2100:00−19ssw23960 0.0 102142
03:00−19s369233 0.0 1020108
06:00−17s4109085 0.0 1018252
09:00−14s6138893 0.0 1015417
12:00−9ssw71494100 0.7 1011572
15:00−7sw61391100 1.5 1009636
18:00−6sw61690100 0.1 1007555
21:00−3sw61494100 0.4 1005551
22 january, fri
fri2200:000wsw61492100 0.1 1005606
03:00+1wsw61392100 0.1 1006523
06:00+1wsw5129499 0.0 1006520
09:00+1sw41096100 0.4 1007444
12:00+1wsw4999100 0.0 1008539
15:00+1sw27100100 0.0 1008340
18:00+1ssw3796100 0.0 1009276
21:00−1ssw3896100 0.1 1009330